Saginaw, MI

7:46 PM EDT on March 25, 2017 (GMT -0400)
MBS International

Weather History for KMBS - November, 2014

Change the Weather History Date:

Thursday, November 6, 2014

  Actual Average Record
Temperature  
Mean Temperature 43 °F 42 °F  
Max Temperature 49 °F 51 °F 72 °F (2008)
Min Temperature 37 °F 34 °F 26 °F (2010)
Degree Days  
Heating Degree Days 22    
Month to date heating degree days 131  
Since 1 July heating degree days 722  
Cooling Degree Days 0    
Month to date cooling degree days 0  
Year to date cooling degree days 539  
Moisture  
Dew Point 38 °F    
Average Humidity 77    
Maximum Humidity 89    
Minimum Humidity 64    
Precipitation  
Precipitation 0.06 in 0.09 in 0.31 in (1997)
Month to date precipitation 0.10 0.56  
Year to date precipitation 28.29 27.54  
Snow  
Snow 0.00 in - - ()
Month to date snowfall 0.0  
Since 1 July snowfall T  
Since 1 September snowfall T  
Snow Depth 0.00 in    
Sea Level Pressure  
Sea Level Pressure 29.90 in    
Wind  
Wind Speed 13 mph (NNE)    
Max Wind Speed 25 mph    
Max Gust Speed 31 mph    
Visibility 9 miles    
Events Rain    
T = Trace of Precipitation, MM = Missing Value Source: NWS Daily Summary

Daily Weather History Graph

Daily Weather History Graph

Search for Another Location

Airport or City:

Trip Planner

Search our weather history database for the weather conditions in past years. The results will help you decide how hot, cold, wet, or windy it might be!

Date:

Astronomy

Nov. 06, 2014 Rise Set
Actual Time 7:18 AM EST 5:20 PM EST
Civil Twilight 6:48 AM EST 5:51 PM EST
Nautical Twilight 6:14 AM EST 6:25 PM EST
Astronomical Twilight 5:40 AM EST 6:58 PM EST
Moon 5:28 PM EST (11/6) 6:47 AM EST (11/6)
Length of Visible Light 11h 02m
Length of Day
10h 02m
Full, 100% of the Moon is Illuminated
Nov 6
Full
Nov 6
Full
Nov 14
Last Quarter
Nov 22
New
Nov 29
First Quarter

Hourly Weather History & Observations

Time (EST) Temp. Windchill Dew Point Humidity Pressure Visibility Wind Dir Wind Speed Gust Speed Precip Events Conditions
12:53 AM 43.0 °F - 39.9 °F 89% 29.98 in 10.0 mi Calm Calm - 0.01 in Rain Light Rain
1:53 AM 42.1 °F 38.4 °F 39.0 °F 89% 29.95 in 9.0 mi ENE 5.8 mph - 0.01 in Rain Light Rain
2:53 AM 42.1 °F 36.6 °F 39.0 °F 89% 29.91 in 9.0 mi East 9.2 mph - 0.00 in Rain Light Rain
3:53 AM 43.0 °F 37.2 °F 37.9 °F 82% 29.86 in 10.0 mi East 10.4 mph - 0.01 in   Overcast
4:53 AM 43.0 °F 39.5 °F 37.9 °F 82% 29.85 in 10.0 mi East 5.8 mph - N/A   Overcast
5:53 AM 43.0 °F 35.4 °F 37.0 °F 80% 29.82 in 10.0 mi East 16.1 mph - N/A   Overcast
6:53 AM 43.0 °F 35.7 °F 36.0 °F 76% 29.80 in 10.0 mi East 15.0 mph - N/A   Overcast
7:53 AM 44.1 °F 39.0 °F 37.0 °F 76% 29.80 in 10.0 mi East 9.2 mph - N/A   Overcast
8:53 AM 45.0 °F 41.8 °F 37.9 °F 76% 29.81 in 10.0 mi SSE 5.8 mph - N/A   Overcast
9:53 AM 46.0 °F 41.4 °F 39.0 °F 76% 29.78 in 10.0 mi East 9.2 mph - N/A   Overcast
10:53 AM 48.0 °F - 41.0 °F 77% 29.78 in 10.0 mi East 11.5 mph - 0.00 in   Overcast
11:37 AM 48.0 °F - 41.0 °F 77% 29.77 in 10.0 mi East 9.2 mph - N/A   Overcast
11:53 AM 48.9 °F - 41.0 °F 74% 29.78 in 10.0 mi ENE 8.1 mph - N/A   Overcast
12:53 PM 48.0 °F - 43.0 °F 83% 29.78 in 5.0 mi NE 10.4 mph - 0.00 in Rain Light Rain
1:27 PM 48.0 °F - 42.1 °F 80% 29.78 in 8.0 mi NNE 12.7 mph - 0.01 in Rain Light Rain
1:53 PM 46.9 °F - 42.1 °F 83% 29.79 in 4.0 mi NNE 11.5 mph - 0.01 in Rain Light Rain
2:53 PM 48.9 °F - 43.0 °F 80% 29.81 in 10.0 mi NNE 13.8 mph - 0.00 in   Overcast
3:53 PM 46.0 °F 37.8 °F 41.0 °F 83% 29.85 in 10.0 mi North 23.0 mph 31.1 mph N/A   Overcast
4:06 PM 45.0 °F 37.1 °F 41.0 °F 86% 29.85 in 10.0 mi North 19.6 mph 27.6 mph 0.00 in Rain Light Rain
4:13 PM 45.0 °F 36.6 °F 41.0 °F 86% 29.85 in 10.0 mi North 21.9 mph - 0.00 in Rain Light Rain
4:35 PM 44.1 °F 36.2 °F 41.0 °F 89% 29.87 in 7.0 mi North 18.4 mph - 0.01 in Rain Light Rain
4:53 PM 43.0 °F 34.2 °F 37.9 °F 82% 29.90 in 10.0 mi North 20.7 mph 28.8 mph 0.01 in Rain Light Rain
5:05 PM 43.0 °F 34.2 °F 37.9 °F 82% 29.89 in 8.0 mi North 20.7 mph 28.8 mph 0.00 in Rain Light Rain
5:53 PM 41.0 °F 32.2 °F 36.0 °F 82% 29.94 in 10.0 mi North 18.4 mph 28.8 mph 0.01 in   Overcast
6:13 PM 41.0 °F 32.2 °F 36.0 °F 82% 29.94 in 10.0 mi North 18.4 mph 27.6 mph N/A   Overcast
6:42 PM 41.0 °F 32.5 °F 36.0 °F 82% 29.96 in 10.0 mi North 17.3 mph - 0.00 in Rain Light Rain
6:53 PM 41.0 °F 32.8 °F 36.0 °F 82% 29.99 in 10.0 mi North 16.1 mph - 0.00 in   Overcast
7:26 PM 41.0 °F 33.1 °F 35.1 °F 79% 30.00 in 10.0 mi North 15.0 mph 26.5 mph N/A   Overcast
7:53 PM 39.9 °F 30.8 °F 34.0 °F 79% 30.03 in 10.0 mi NNW 18.4 mph - 0.00 in   Overcast
8:03 PM 39.2 °F 30.2 °F 33.8 °F 81% 30.02 in 10.0 mi NNW 17.3 mph - N/A   Overcast
8:27 PM 39.9 °F 31.4 °F 33.1 °F 77% 30.03 in 10.0 mi NNW 16.1 mph - N/A   Overcast
8:53 PM 39.9 °F 32.1 °F 33.1 °F 77% 30.05 in 10.0 mi NNW 13.8 mph - N/A   Overcast
9:53 PM 37.9 °F 27.6 °F 30.9 °F 76% 30.06 in 10.0 mi NNW 20.7 mph - N/A   Overcast
10:53 PM 37.9 °F 27.6 °F 27.0 °F 65% 30.08 in 10.0 mi NNW 20.7 mph 27.6 mph N/A   Overcast
11:53 PM 37.0 °F 30.4 °F 28.0 °F 70% 30.08 in 10.0 mi NNW 9.2 mph - N/A   Overcast